THOR ABLESTAR DEB, 48826

Orbit data source: Space-Track

THOR ABLESTAR DEB, 48826 is space debris in LEO originally from a launch on Thu, 29 Jun 1961 UTC launched from the Air Force Eastern Test Range (AFETR). Debris objects in space refer to the collection of defunct objects orbiting the Earth. Examples of debris include non-operational satellites, rocket bodies, and fragments generated from explosions, collisions, or faulty payload assembly.

Loading next visibility...
Identifier
48826, 1961-015NE
Orbit
LEO
Country
Flag of USUS
Related business
Manufacturer
Unknown
Mission
Spacecraft
Bus & Motor
Unknown
Mass
Unknown
Launch date (UTC)
1961-06-29 (65 years ago)
Launch vehicle
Unknown
Launch site
Air Force Eastern Test Range (AFETR)
Object type
Payload
Rocket body
Debris
Shape & HBR
Unknown shape, 0.056 m
Radar Cross Section
Small (<0.1 m²)

Expand to show TLE details & history
Last TLE update: 17 hours ago

TLE from 17 hours ago
0 THOR ABLESTAR DEB
1 48826U 61015NE  26266.81800252  .00000736  00000-0  29294-3 0  9994
2 48826  66.5953 101.6260 0054704 277.7249  96.6458 14.33395424668835
Epoch: 2026-09-23T19:37Z
TLE epoch observation values (Epoch: 2026-09-23T19:37:55.417Z)
Latitude
13.71663°
Longitude
170.5135°
Altitude
786.509 km
Speed
7.46 km/s
True Right ascension
07h 10m 37s
True Declination
13° 38' 17"
Sunlit
Object was in daylight at epoch
Visualization orbit readout
Latitude
Unknown
Longitude
Unknown
Altitude
Unknown
Speed
Unknown
Apparent Right ascension
Unknown
Apparent Declination
Unknown
Sunlit
N/A
Visualization observer readout
Local Sidereal Time
05:57:17
Azimuth
Unknown
Elevation
Unknown
Doppler factor
Unknown
Orbital elements
Apogee altitude
817.94 km
Perigee altitude
739.637 km
Semi-major axis
7,156.925 km
Eccentricity
0.00547
Inclination
66.5953°
RAAN
101.626°
Arg. of periapsis
277.7249°
True anomaly
97.26794°
Mean anomaly
96.6458°
Eccentric anomaly
96.95692°
Mean motion
3.58471 °/min
Orbital period
100.43 mins
BSTAR
0.00029294
Loading maneuver chart data...
Computing Atmospheric mass density...

Documentation

Showing up to 5 results
|